Powrót do katalogu

STARLINK-35396

AktywnyŁącznośćVLEO
NORAD 65828·PAYLOAD·🇺🇸 United States

Wystrzelony Sep 29, 2025 z Vandenberg Space Force Base

Loading…

Następne Przeloty (najbliższe 24 godziny)

TLE

ŚwieżeSource: CelesTrak SupGP

Epoka: Sep 14, 2026, 20:40 UTC

1 65828C 25221F   26257.86159722  .00020437  00000+0  60400-3 0  2578
2 65828  53.1570 286.1011 0001145  94.4184  15.4200 15.34370524    19

Śledź STARLINK-35396 w czasie rzeczywistym z AllMySat

Download on the App Store